Погода в Раеве

Россия / Пензенская область     53°26′48″N   42°24′56″E
темп.,
°C
ветер,
м/с
пор.,
м/с
влажн.,
%
обл.,
%
осадки,
мм/ч
давл.,
гПа
погр.,
м
2 декабря, чт
чт200:00−2юз41090100 0.1 997567
03:00−1з5972100 0.8 9981002
06:00−3з597099 0.0 10011086
09:00−4з597187 0.0 10041032
12:00−3з685998 0.0 1006825
15:00−3зюз595831 0.0 1007821
18:00−2ююз51164100 0.0 1007645
21:00−3ююз71490100 0.1 1006689
3 декабря, пт
пт300:00−2ююз71595100 1.1 1006658
03:000юз61598100 2.2 1005628
06:00+1юз61497100 0.3 1006536
09:00+2юз61395100 0.3 1008550
12:00+3юз61294100 0.0 1008467
15:00+3ююз61193100 0.0 1009518
18:00+3ю51398100 0.0 1009345
21:00+4ю81696100 0.0 1008644
4 декабря, сб
сб400:00+4ю81891100 0.0 1007652
03:00+5ю91890100 0.0 1005674
06:00+4ююз91791100 0.8 1003808
09:00+1зсз4997100 2.0 1008542
12:00+1з4881100 0.0 1009608
15:000зюз4975100 0.0 1011561
18:00−1зюз497725 0.0 1012508
21:00−2з488622 0.0 1014610
5 декабря, вс
вс500:00−2зсз577397 0.0 1015790
03:00−2з47735 0.0 1016685
06:00−3з3681100 0.0 1017458
09:00−2з3579100 0.0 1020446
12:00−1зсз247096 0.0 1021503
15:00−1зсз11715 0.0 102122
18:00−2всв1175100 0.0 102211
21:00−2в2275100 0.0 102357
6 декабря, пн
пн600:00−3в2475100 0.0 1024127
03:00−3вюв3674100 0.0 1024206
06:00−2в3773100 0.0 1024266
09:00−2в4871100 0.0 1026341
12:00−1вюв5106483 0.0 1025457
15:00−1вюв51064100 0.0 1026454
18:00−1вюв51167100 0.0 1026543
21:00−1юв61188100 0.0 1026483